| time (UTC) | temp F | wind direction | speed MPH | gust MPH | rain 1hr in | rain 24hr in | rain mn in | humidity % | barometer mb |
| 20260510040049 | 48 | 0 | 0.0 | 0.0 | 0.00 | 0.34 | 0.00 | 94 | 1011.0 |
| 20260510034608 | 49 | 0 | 0.0 | 0.0 | 0.00 | 0.34 | 0.34 | 94 | 1010.9 |
| 20260510033058 | 49 | 0 | 0.0 | 0.0 | 0.00 | 0.34 | 0.34 | 94 | 1010.8 |
| 20260510031555 | 49 | 0 | 0.0 | 3.0 | 0.00 | 0.34 | 0.34 | 94 | 1011.0 |
| 20260510030111 | 49 | 0 | 0.0 | 5.0 | 0.00 | 0.34 | 0.34 | 94 | 1011.2 |
| 20260510024553 | 49 | 0 | 0.0 | 3.0 | 0.00 | 0.34 | 0.34 | 94 | 1011.1 |
| 20260510023050 | 49 | 0 | 1.0 | 4.0 | 0.00 | 0.34 | 0.34 | 94 | 1010.9 |
| 20260510021559 | 49 | 0 | 0.0 | 0.0 | 0.00 | 0.34 | 0.34 | 94 | 1010.9 |
| 20260510020049 | 49 | 0 | 0.0 | 0.0 | 0.00 | 0.34 | 0.34 | 94 | 1010.9 |
| 20260510014600 | 49 | 0 | 0.0 | 0.0 | 0.00 | 0.34 | 0.34 | 93 | 1011.1 |
| 20260510013103 | 49 | 0 | 0.0 | 0.0 | 0.00 | 0.34 | 0.34 | 93 | 1010.7 |
| 20260510011554 | 50 | 0 | 0.0 | 0.0 | 0.00 | 0.34 | 0.34 | 92 | 1010.5 |
| 20260510010050 | 50 | 0 | 0.0 | 0.0 | 0.00 | 0.34 | 0.34 | 92 | 1010.6 |
| 20260510004550 | 51 | 0 | 0.0 | 2.0 | 0.00 | 0.34 | 0.34 | 92 | 1010.4 |
| 20260510003103 | 51 | 0 | 2.0 | 8.0 | 0.00 | 0.34 | 0.34 | 93 | 1009.9 |
| 20260510001551 | 51 | 85 | 3.0 | 10.0 | 0.00 | 0.34 | 0.34 | 92 | 1009.8 |
| 20260510000106 | 51 | 141 | 2.0 | 11.0 | 0.00 | 0.34 | 0.34 | 92 | 1009.6 |
| 20260509234549 | 52 | 0 | 0.0 | 3.0 | 0.00 | 0.34 | 0.34 | 92 | 1009.7 |
| 20260509233050 | 52 | 212 | 1.0 | 6.0 | 0.00 | 0.34 | 0.34 | 92 | 1009.8 |
| 20260509231553 | 52 | 223 | 2.0 | 8.0 | 0.00 | 0.34 | 0.34 | 91 | 1009.9 |
| 20260509230058 | 53 | 85 | 3.0 | 12.0 | 0.00 | 0.34 | 0.34 | 92 | 1009.5 |
| 20260509224552 | 53 | 0 | 1.0 | 10.0 | 0.00 | 0.34 | 0.34 | 92 | 1009.6 |
| 20260509223049 | 52 | 145 | 3.0 | 9.0 | 0.00 | 0.34 | 0.34 | 92 | 1009.6 |
| 20260509221559 | 53 | 146 | 4.0 | 11.0 | 0.01 | 0.34 | 0.34 | 92 | 1009.9 |
| 20260509220051 | 52 | 108 | 2.0 | 6.0 | 0.02 | 0.34 | 0.34 | 93 | 1010.1 |
| 20260509214600 | 52 | 202 | 2.0 | 7.0 | 0.05 | 0.34 | 0.34 | 93 | 1010.1 |
| 20260509213050 | 52 | 206 | 2.0 | 12.0 | 0.06 | 0.34 | 0.34 | 92 | 1010.2 |
| 20260509211548 | 52 | 143 | 4.0 | 9.0 | 0.07 | 0.33 | 0.33 | 93 | 1010.3 |
| 20260509210054 | 52 | 0 | 1.0 | 4.0 | 0.08 | 0.32 | 0.32 | 93 | 1010.2 |
| 20260509204550 | 52 | 0 | 1.0 | 4.0 | 0.06 | 0.29 | 0.29 | 92 | 1010.7 |
| 20260509203048 | 52 | 229 | 1.0 | 5.0 | 0.06 | 0.28 | 0.28 | 92 | 1010.8 |
| 20260509201548 | 52 | 0 | 1.0 | 8.0 | 0.04 | 0.25 | 0.25 | 92 | 1011.0 |
| 20260509200058 | 53 | 0 | 0.0 | 7.0 | 0.05 | 0.24 | 0.24 | 91 | 1011.0 |
| 20260509194554 | 53 | 0 | 1.0 | 10.0 | 0.05 | 0.23 | 0.23 | 91 | 1011.2 |
| 20260509193050 | 53 | 210 | 5.0 | 13.0 | 0.10 | 0.22 | 0.22 | 91 | 1011.5 |
| 20260509191549 | 54 | 233 | 2.0 | 9.0 | 0.16 | 0.21 | 0.21 | 92 | 1011.8 |
| 20260509190049 | 54 | 217 | 3.0 | 10.0 | 0.15 | 0.19 | 0.19 | 91 | 1011.6 |
| 20260509184547 | 54 | 0 | 0.0 | 3.0 | 0.15 | 0.18 | 0.18 | 91 | 1011.4 |
| 20260509183102 | 55 | 0 | 0.0 | 3.0 | 0.09 | 0.12 | 0.12 | 90 | 1011.3 |
| 20260509181549 | 55 | 199 | 0.0 | 2.0 | 0.02 | 0.05 | 0.05 | 89 | 1011.1 |
| 20260509180052 | 55 | 0 | 0.0 | 4.0 | 0.01 | 0.04 | 0.04 | 89 | 1011.1 |
| 20260509174552 | 55 | 0 | 0.0 | 5.0 | 0.00 | 0.03 | 0.03 | 89 | 1011.0 |
| 20260509173052 | 55 | 170 | 0.0 | 5.0 | 0.00 | 0.03 | 0.03 | 88 | 1010.9 |
| 20260509171550 | 54 | 216 | 1.0 | 10.0 | 0.01 | 0.03 | 0.03 | 88 | 1011.0 |
| 20260509170050 | 54 | 69 | 1.0 | 6.0 | 0.01 | 0.03 | 0.03 | 88 | 1011.2 |
| 20260509164550 | 54 | 154 | 3.0 | 8.0 | 0.01 | 0.03 | 0.03 | 88 | 1011.2 |
| 20260509163050 | 53 | 0 | 0.0 | 5.0 | 0.02 | 0.03 | 0.03 | 88 | 1011.6 |
| 20260509161549 | 53 | 0 | 1.0 | 5.0 | 0.01 | 0.02 | 0.02 | 86 | 1011.6 |
| 20260509160048 | 53 | 174 | 1.0 | 6.0 | 0.01 | 0.02 | 0.02 | 86 | 1012.1 |
| 20260509154550 | 53 | 227 | 1.0 | 5.0 | 0.01 | 0.02 | 0.02 | 85 | 1012.3 |
| 20260509153056 | 53 | 206 | 3.0 | 8.0 | 0.00 | 0.01 | 0.01 | 82 | 1012.2 |
| 20260509151548 | 53 | 155 | 3.0 | 7.0 | 0.00 | 0.01 | 0.01 | 81 | 1012.2 |
| 20260509150048 | 53 | 140 | 0.0 | 6.0 | 0.00 | 0.01 | 0.01 | 83 | 1012.0 |
| 20260509144557 | 52 | 148 | 2.0 | 8.0 | 0.00 | 0.01 | 0.01 | 82 | 1012.0 |
| 20260509143057 | 52 | 117 | 1.0 | 6.0 | 0.00 | 0.01 | 0.01 | 82 | 1012.2 |
| 20260509141557 | 51 | 192 | 1.0 | 5.0 | 0.00 | 0.01 | 0.01 | 84 | 1012.3 |
| 20260509134551 | 50 | 188 | 5.0 | 12.0 | 0.00 | 0.01 | 0.01 | 83 | 1012.2 |
| 20260509133049 | 50 | 153 | 2.0 | 12.0 | 0.00 | 0.01 | 0.01 | 82 | 1012.2 |
| 20260509131554 | 50 | 136 | 5.0 | 9.0 | 0.00 | 0.01 | 0.01 | 82 | 1012.2 |
| 20260509130055 | 49 | 0 | 1.0 | 12.0 | 0.00 | 0.01 | 0.01 | 83 | 1011.9 |
| 20260509124552 | 49 | 150 | 4.0 | 10.0 | 0.00 | 0.01 | 0.01 | 83 | 1011.8 |
| 20260509123114 | 48 | 0 | 6.0 | 12.0 | 0.00 | 0.01 | 0.01 | 85 | 1012.3 |
| 20260509121546 | 48 | 94 | 6.0 | 10.0 | 0.00 | 0.01 | 0.01 | 85 | 1012.3 |
| 20260509120045 | 48 | 123 | 3.0 | 10.0 | 0.00 | 0.01 | 0.01 | 86 | 1012.4 |
| 20260509114548 | 47 | 113 | 1.0 | 7.0 | 0.00 | 0.01 | 0.01 | 86 | 1012.6 |
| 20260509113050 | 47 | 159 | 2.0 | 7.0 | 0.00 | 0.01 | 0.01 | 87 | 1012.4 |
| 20260509111549 | 47 | 0 | 1.0 | 6.0 | 0.00 | 0.01 | 0.01 | 87 | 1012.4 |
| 20260509110053 | 47 | 101 | 1.0 | 7.0 | 0.00 | 0.01 | 0.01 | 87 | 1012.3 |
| 20260509104548 | 47 | 0 | 0.0 | 3.0 | 0.00 | 0.01 | 0.01 | 90 | 1012.3 |
| 20260509103059 | 46 | 0 | 0.0 | 2.0 | 0.00 | 0.01 | 0.01 | 91 | 1012.4 |
| 20260509101550 | 46 | 0 | 0.0 | 2.0 | 0.00 | 0.01 | 0.01 | 91 | 1012.4 |
| 20260509100052 | 46 | 0 | 0.0 | 2.0 | 0.00 | 0.01 | 0.01 | 91 | 1012.5 |
| 20260509094549 | 46 | 0 | 1.0 | 3.0 | 0.00 | 0.01 | 0.01 | 91 | 1012.7 |
| 20260509093049 | 46 | 0 | 0.0 | 0.0 | 0.01 | 0.01 | 0.01 | 91 | 1012.7 |
| 20260509091547 | 46 | 0 | 0.0 | 0.0 | 0.01 | 0.01 | 0.01 | 91 | 1012.8 |
| 20260509090055 | 46 | 0 | 0.0 | 0.0 | 0.01 | 0.01 | 0.01 | 90 | 1012.8 |
| 20260509084551 | 46 | 0 | 0.0 | 2.0 | 0.01 | 0.01 | 0.01 | 89 | 1012.7 |
| 20260509083057 | 46 | 146 | 0.0 | 2.0 | 0.00 | 0.00 | 0.00 | 88 | 1012.8 |
| 20260509081555 | 47 | 146 | 0.0 | 2.0 | 0.00 | 0.00 | 0.00 | 86 | 1012.5 |
| 20260509080052 | 47 | 0 | 0.0 | 4.0 | 0.00 | 0.00 | 0.00 | 84 | 1012.6 |
| 20260509074604 | 48 | 146 | 1.0 | 4.0 | 0.00 | 0.00 | 0.00 | 79 | 1012.5 |
| 20260509073046 | 49 | 146 | 1.0 | 3.0 | 0.00 | 0.00 | 0.00 | 75 | 1012.5 |
| 20260509071607 | 50 | 0 | 0.0 | 4.0 | 0.00 | 0.00 | 0.00 | 69 | 1012.5 |
| 20260509070048 | 50 | 0 | 2.0 | 5.0 | 0.00 | 0.00 | 0.00 | 65 | 1012.4 |
| 20260509064557 | 50 | 129 | 1.0 | 4.0 | 0.00 | 0.00 | 0.00 | 64 | 1012.4 |
| 20260509063052 | 50 | 113 | 2.0 | 7.0 | 0.00 | 0.00 | 0.00 | 63 | 1012.5 |
| 20260509061559 | 50 | 112 | 3.0 | 7.0 | 0.00 | 0.00 | 0.00 | 61 | 1012.4 |
| 20260509060054 | 50 | 103 | 1.0 | 6.0 | 0.00 | 0.00 | 0.00 | 61 | 1012.6 |
| 20260509054606 | 49 | 103 | 1.0 | 4.0 | 0.00 | 0.00 | 0.00 | 61 | 1012.8 |
| 20260509053050 | 49 | 0 | 2.0 | 4.0 | 0.00 | 0.00 | 0.00 | 61 | 1013.0 |
| 20260509051555 | 48 | 112 | 1.0 | 3.0 | 0.00 | 0.00 | 0.00 | 61 | 1013.1 |
| 20260509050055 | 48 | 0 | 0.0 | 2.0 | 0.00 | 0.00 | 0.00 | 61 | 1012.8 |
| 20260509044554 | 49 | 0 | 0.0 | 1.0 | 0.00 | 0.00 | 0.00 | 59 | 1013.0 |
| 20260509043057 | 49 | 0 | 0.0 | 0.0 | 0.00 | 0.00 | 0.00 | 59 | 1013.0 |
| 20260509041551 | 49 | 154 | 1.0 | 3.0 | 0.00 | 0.00 | 0.00 | 60 | 1012.9 |